Location: Devore Heights
(34.2372°N, 117.4156°W)
Time: 23:55:49
(UTC+00:00)

Transit 4A - Pass Details

Date: 13 September 2024
Orbit: 864 x 978 km, 66.8° (Epoch: 13 October)

Event Time Altitude Azimuth Distance (km) Brightness Sun altitude
Rises 11:17:44 0° 222° (SW) 3,434 - -27.5°
Reaches altitude 10° 11:20:17 10° 229° (SW) 2,506 - -27.0°
Maximum altitude 11:25:48 45° 301° (WNW) 1,182 - -26.0°
Exits shadow 11:26:11 44° 312° (NW) 1,194 8.2 -25.9°
Drops below altitude 10° 11:31:28 10° 14° (NNE) 2,570 10.6 -24.9°
Sets 11:34:08 0° 20° (NNE) 3,531 11.5 -24.4°
